Location: WWIN Observatory
(34.8953°N, 91.9583°W)
Time: 04:09:40
(UTC-05:00)

Envisat - Visible Passes

Search period start: 26 March 2019 00:00
Search period end: 05 April 2019 00:00
Orbit: 764 x 766 km, 98.2° (Epoch: 25 March)

Date Brightness Start Highest point End Pass type
(mag) Time Alt. Az. Time Alt. Az. Time Alt. Az.
26 Mar 6.0 21:11:18 10° WSW 21:13:42 13° W 21:16:07 10° WNW visible
27 Mar 4.9 20:32:11 10° SSW 20:36:41 32° W 20:41:13 10° NW visible
28 Mar 3.2 19:54:47 10° S 19:59:51 78° WSW 20:04:57 10° NNW visible
29 Mar 5.8 20:59:03 10° SW 21:02:23 17° W 21:05:44 10° NW visible
30 Mar 4.4 20:20:39 10° S 20:25:26 41° W 20:30:13 10° NNW visible
31 Mar 3.0 19:43:35 10° SSE 19:48:39 82° ENE 19:53:44 10° N visible
01 Apr 5.4 20:47:09 10° SW 20:51:05 23° W 20:55:02 10° NW visible
02 Apr 3.9 20:09:14 10° S 20:14:11 54° W 20:19:10 10° NNW visible
03 Apr 6.0 21:15:00 10° WSW 21:16:50 12° W 21:18:42 10° WNW visible
04 Apr 5.0 20:35:26 10° SSW 20:39:48 29° W 20:44:12 10° NW visible
